Huntingburg, IN

12:55 PM EDT on March 28, 2017 (GMT -0400)
Huntingburg

Weather History for KHNB - April, 2013

Change the Weather History Date:

Tuesday, April 9, 2013

  Actual Average Record
Temperature  
Mean Temperature 70 °F -  
Max Temperature 78 °F 62 °F 84 °F (2001)
Min Temperature 62 °F 43 °F 23 °F (1997)
Cooling Degree Days 5    
Growing Degree Days 20 (Base 50)    
Moisture  
Dew Point 57 °F    
Average Humidity 64    
Maximum Humidity 73    
Minimum Humidity 54    
Precipitation  
Precipitation 0.00 in - - ()
Sea Level Pressure  
Sea Level Pressure 29.98 in    
Wind  
Wind Speed 10 mph (South)    
Max Wind Speed 24 mph    
Max Gust Speed 31 mph    
Visibility 10 miles    
Events      
Averages and records for this station are not official NWS values.
T = Trace of Precipitation, MM = Missing Value Source: NWS Daily Summary

Daily Weather History Graph

Daily Weather History Graph

Search for Another Location

Airport or City:

Trip Planner

Search our weather history database for the weather conditions in past years. The results will help you decide how hot, cold, wet, or windy it might be!

Date:

Astronomy

Apr. 09, 2013 Rise Set
Actual Time 7:20 AM EDT 8:18 PM EDT
Civil Twilight 6:53 AM EDT 8:45 PM EDT
Nautical Twilight 6:21 AM EDT 9:17 PM EDT
Astronomical Twilight 5:48 AM EDT 9:51 PM EDT
Moon 6:42 AM EDT (4/9) 7:53 PM EDT (4/9)
Length of Visible Light 13h 52m
Length of Day
12h 58m
Waning Crescent, 1% of the Moon is Illuminated
Apr 9
Waning Crescent
Apr 10
New
Apr 18
First Quarter
Apr 25
Full
May 2
Last Quarter

Hourly Weather History & Observations

Time (EDT) Temp. Dew Point Humidity Pressure Visibility Wind Dir Wind Speed Gust Speed Precip Events Conditions
12:15 AM 64.4 °F 51.8 °F 64% 29.98 in 10.0 mi SE 4.6 mph - N/A   Scattered Clouds
12:35 AM 64.4 °F 51.8 °F 64% 29.98 in 10.0 mi SE 4.6 mph - N/A   Scattered Clouds
12:55 AM 62.6 °F 51.8 °F 68% 29.99 in 10.0 mi ESE 5.8 mph - N/A   Clear
1:15 AM 62.6 °F 51.8 °F 68% 29.98 in 10.0 mi ESE 6.9 mph - N/A   Clear
1:35 AM 62.6 °F 51.8 °F 68% 29.98 in 10.0 mi SE 8.1 mph - N/A   Clear
1:55 AM 62.6 °F 51.8 °F 68% 29.98 in 10.0 mi SE 8.1 mph - N/A   Scattered Clouds
2:15 AM 62.6 °F 51.8 °F 68% 29.98 in 10.0 mi SSE 4.6 mph - N/A   Partly Cloudy
2:35 AM 64.4 °F 51.8 °F 64% 29.98 in 10.0 mi SSE 5.8 mph - N/A   Clear
2:55 AM 62.6 °F 51.8 °F 68% 29.97 in 10.0 mi SSE 5.8 mph - N/A   Clear
3:35 AM 62.6 °F 51.8 °F 68% 29.97 in 10.0 mi SE 4.6 mph - N/A   Partly Cloudy
3:55 AM 62.6 °F 51.8 °F 68% 29.97 in 10.0 mi SE 5.8 mph - N/A   Partly Cloudy
4:35 AM 62.6 °F 51.8 °F 68% 29.97 in 10.0 mi SE 5.8 mph - N/A   Scattered Clouds
4:55 AM 62.6 °F 51.8 °F 68% 29.97 in 10.0 mi SSE 5.8 mph - N/A   Scattered Clouds
5:15 AM 62.6 °F 51.8 °F 68% 29.97 in 10.0 mi SE 6.9 mph - N/A   Partly Cloudy
5:35 AM 62.6 °F 51.8 °F 68% 29.97 in 10.0 mi SE 5.8 mph - N/A   Partly Cloudy
5:55 AM 62.6 °F 51.8 °F 68% 29.98 in 10.0 mi SSE 5.8 mph - N/A   Mostly Cloudy
6:15 AM 62.6 °F 51.8 °F 68% 29.99 in 10.0 mi SE 8.1 mph - N/A   Scattered Clouds
6:35 AM 62.6 °F 51.8 °F 68% 29.99 in 10.0 mi SSE 6.9 mph - N/A   Scattered Clouds
6:55 AM 62.6 °F 51.8 °F 68% 30.00 in 10.0 mi SSE 5.8 mph - N/A   Partly Cloudy
7:15 AM 62.6 °F 53.6 °F 72% 30.00 in 10.0 mi SSE 6.9 mph - N/A   Partly Cloudy
7:35 AM 62.6 °F 53.6 °F 72% 30.00 in 10.0 mi SSE 8.1 mph - N/A   Partly Cloudy
7:55 AM 62.6 °F 53.6 °F 72% 30.01 in 10.0 mi SSE 6.9 mph - N/A   Clear
8:15 AM 62.6 °F 53.6 °F 72% 30.02 in 10.0 mi SSE 5.8 mph - N/A   Clear
8:35 AM 62.6 °F 53.6 °F 72% 30.02 in 10.0 mi SSE 6.9 mph - N/A   Clear
8:55 AM 64.4 °F 55.4 °F 73% 30.03 in 10.0 mi South 12.7 mph - N/A   Partly Cloudy
9:15 AM 66.2 °F 55.4 °F 68% 30.03 in 10.0 mi South 9.2 mph - N/A   Scattered Clouds
9:35 AM 66.2 °F 57.2 °F 73% 30.04 in 10.0 mi South 12.7 mph - N/A   Scattered Clouds
9:55 AM 66.2 °F 57.2 °F 73% 30.04 in 10.0 mi SSW 11.5 mph - N/A   Mostly Cloudy
10:15 AM 69.8 °F 57.2 °F 64% 30.03 in 10.0 mi South 17.3 mph - N/A   Partly Cloudy
10:35 AM 71.6 °F 59.0 °F 64% 30.03 in 10.0 mi South 13.8 mph 19.6 mph N/A   Clear
10:55 AM 71.6 °F 59.0 °F 64% 30.03 in 10.0 mi South 18.4 mph 21.9 mph N/A   Clear
11:15 AM 69.8 °F 57.2 °F 64% 30.04 in 10.0 mi SSW 16.1 mph 24.2 mph N/A   Scattered Clouds
11:35 AM 69.8 °F 59.0 °F 68% 30.04 in 10.0 mi South 16.1 mph 19.6 mph N/A   Partly Cloudy
11:55 AM 71.6 °F 60.8 °F 69% 30.04 in 10.0 mi South 13.8 mph - N/A   Clear
12:15 PM 75.2 °F 60.8 °F 61% 30.04 in 10.0 mi SSW 24.2 mph 27.6 mph N/A   Scattered Clouds
12:35 PM 75.2 °F 60.8 °F 61% 30.03 in 10.0 mi SSW 23.0 mph 29.9 mph N/A   Scattered Clouds
12:55 PM 75.2 °F 59.0 °F 57% 30.02 in 10.0 mi SSW 23.0 mph 31.1 mph N/A   Partly Cloudy
1:15 PM 73.4 °F 57.2 °F 57% 30.02 in 10.0 mi SSW 15.0 mph 24.2 mph N/A   Mostly Cloudy
1:35 PM 73.4 °F 60.8 °F 65% 30.01 in 10.0 mi South 18.4 mph 24.2 mph N/A   Mostly Cloudy
1:55 PM 75.2 °F 60.8 °F 61% 30.00 in 10.0 mi South 24.2 mph 29.9 mph N/A   Scattered Clouds
2:15 PM 75.2 °F 59.0 °F 57% 29.99 in 10.0 mi SSW 18.4 mph 29.9 mph N/A   Partly Cloudy
2:35 PM 77.0 °F 60.8 °F 57% 29.99 in 10.0 mi SSW 19.6 mph 26.5 mph N/A   Scattered Clouds
2:55 PM 77.0 °F 59.0 °F 54% 29.98 in 10.0 mi SSW 16.1 mph 29.9 mph N/A   Scattered Clouds
3:15 PM 77.0 °F 59.0 °F 54% 29.97 in 10.0 mi South 19.6 mph 26.5 mph N/A   Scattered Clouds
3:35 PM 78.8 °F 60.8 °F 54% 29.97 in 10.0 mi South 15.0 mph 25.3 mph N/A   Mostly Cloudy
3:55 PM 78.8 °F 60.8 °F 54% 29.95 in 10.0 mi South 16.1 mph 23.0 mph N/A   Scattered Clouds
4:15 PM 77.0 °F 60.8 °F 57% 29.94 in 10.0 mi South 17.3 mph 26.5 mph N/A   Scattered Clouds
4:35 PM 78.8 °F 60.8 °F 54% 29.94 in 10.0 mi South 20.7 mph 26.5 mph N/A   Scattered Clouds
5:55 PM 78.8 °F 60.8 °F 54% 29.93 in 10.0 mi SSW 21.9 mph 25.3 mph N/A   Scattered Clouds
6:15 PM 78.8 °F 60.8 °F 54% 29.93 in 10.0 mi SSW 20.7 mph 26.5 mph N/A   Partly Cloudy
6:35 PM 78.8 °F 60.8 °F 54% 29.93 in 10.0 mi SSW 11.5 mph - N/A   Clear
6:55 PM 78.8 °F 60.8 °F 54% 29.94 in 10.0 mi SSW 17.3 mph 23.0 mph N/A   Mostly Cloudy
7:15 PM 75.2 °F 60.8 °F 61% 29.95 in 10.0 mi South 13.8 mph - N/A   Scattered Clouds
7:35 PM 75.2 °F 60.8 °F 61% 29.95 in 10.0 mi South 13.8 mph 19.6 mph N/A   Scattered Clouds
7:55 PM 73.4 °F 60.8 °F 65% 29.95 in 10.0 mi South 15.0 mph 19.6 mph N/A   Partly Cloudy
8:15 PM 73.4 °F 59.0 °F 61% 29.95 in 10.0 mi South 12.7 mph - N/A   Partly Cloudy
8:35 PM 71.6 °F 59.0 °F 64% 29.95 in 10.0 mi South 11.5 mph - N/A   Partly Cloudy
8:55 PM 71.6 °F 59.0 °F 64% 29.96 in 10.0 mi South 13.8 mph - N/A   Partly Cloudy
9:15 PM 71.6 °F 59.0 °F 64% 29.96 in 10.0 mi South 9.2 mph - N/A   Scattered Clouds
9:35 PM 71.6 °F 59.0 °F 64% 29.96 in 10.0 mi South 10.4 mph - N/A   Scattered Clouds
9:55 PM 71.6 °F 57.2 °F 60% 29.96 in 10.0 mi South 10.4 mph - N/A   Clear
10:15 PM 69.8 °F 57.2 °F 64% 29.96 in 10.0 mi SSE 6.9 mph - N/A   Clear
10:55 PM 69.8 °F 57.2 °F 64% 29.96 in 10.0 mi South 11.5 mph - N/A   Clear
11:35 PM 69.8 °F 59.0 °F 68% 29.96 in 10.0 mi South 10.4 mph - N/A   Mostly Cloudy
11:55 PM 69.8 °F 59.0 °F 68% 29.96 in 10.0 mi South 9.2 mph - N/A   Scattered Clouds